Location: Newark
(42.7133°N, 87.7910°W)
Time: 11:54:43
(UTC+00:00)

A-11 Canister half - Pass Details

Date: 25 September 2019
Orbit: 1527 x 1682 km, 47.3° (Epoch: 20 October)

Event Time Altitude Azimuth Distance (km) Brightness Sun altitude
Exits shadow 08:35:14 65° 183° (S) 1,677 8.9 -33.1°
Maximum altitude 08:36:17 69° 147° (SSE) 1,636 8.9 -33.0°
Drops below altitude 10° 08:45:45 10° 67° (ENE) 3,788 11.9 -31.5°
Sets 08:48:53 0° 65° (ENE) 4,795 12.7 -31.0°
